RAM894 GMMN-LEAL

Flight info

Callsign RAM894
Flight time 1h 21m
Altitude 38000
Route TOLSI1D TOLSI UG5 KORIS L27 MAR N871 ALCOL N747 YES M985 ASTRO ASTRO2L
Aircraft B738/M-SDE2E3FGHIRWXY/LB1

Departure

Time 2026-05-05 11:07
Airport Mohammed V International Airport (GMMN)

Arrival

Time 2026-05-05 12:28
Airport Alicante-Elche Miguel Hernández Airport (LEAL)
Time Latitude Longitude Altitude Speed Heading
2026-05-05 10:29 33.36791 -7.58068 652 ft 0 kts 75°
2026-05-05 10:55 33.36789 -7.58075 653 ft 4 kts 75°
2026-05-05 10:55 33.36782 -7.58106 655 ft 4 kts 75°
2026-05-05 10:55 33.36777 -7.58133 652 ft 4 kts 100°
2026-05-05 10:55 33.36789 -7.58152 655 ft 4 kts 167°
2026-05-05 10:56 33.36816 -7.58156 653 ft 4 kts 168°
2026-05-05 10:56 33.36820 -7.58157 654 ft 1 kts 165°
2026-05-05 11:00 33.36816 -7.58156 653 ft 2 kts 165°
2026-05-05 11:00 33.36789 -7.58147 655 ft 6 kts 165°
2026-05-05 11:00 33.36728 -7.58128 652 ft 11 kts 165°
2026-05-05 11:01 33.36644 -7.58101 652 ft 6 kts 165°
2026-05-05 11:01 33.36592 -7.58084 652 ft 9 kts 165°
2026-05-05 11:01 33.36523 -7.58084 652 ft 11 kts 199°
2026-05-05 11:01 33.36451 -7.58130 652 ft 13 kts 208°
2026-05-05 11:02 33.36368 -7.58128 652 ft 11 kts 165°
2026-05-05 11:02 33.36295 -7.58111 652 ft 10 kts 197°
2026-05-05 11:02 33.36256 -7.58187 652 ft 12 kts 254°
2026-05-05 11:02 33.36190 -7.58232 651 ft 13 kts 171°
2026-05-05 11:03 33.36094 -7.58204 653 ft 15 kts 163°
2026-05-05 11:03 33.36025 -7.58180 653 ft 16 kts 164°
2026-05-05 11:03 33.35869 -7.58127 651 ft 18 kts 164°
2026-05-05 11:03 33.35784 -7.58098 651 ft 20 kts 164°
2026-05-05 11:04 33.35661 -7.58055 651 ft 16 kts 163°
2026-05-05 11:04 33.35569 -7.58101 651 ft 17 kts 250°
2026-05-05 11:04 33.35532 -7.58247 648 ft 20 kts 253°
2026-05-05 11:04 33.35572 -7.58383 645 ft 10 kts 342°
2026-05-05 11:05 33.35594 -7.58390 645 ft 1 kts 343°
2026-05-05 11:05 33.35600 -7.58392 645 ft 1 kts 342°
2026-05-05 11:05 33.35601 -7.58393 645 ft 0 kts 343°
2026-05-05 11:06 33.35602 -7.58393 645 ft 2 kts 343°
2026-05-05 11:06 33.35892 -7.58494 644 ft 87 kts 343°
2026-05-05 11:06 33.36738 -7.58775 673 ft 159 kts 345°
2026-05-05 11:07 33.37882 -7.59165 1324 ft 181 kts 345°
2026-05-05 11:07 33.39139 -7.59581 2340 ft 186 kts 346°
2026-05-05 11:07 33.40364 -7.60014 3212 ft 186 kts 346°
2026-05-05 11:07 33.41627 -7.60437 4023 ft 191 kts 347°
2026-05-05 11:08 33.42929 -7.60836 4838 ft 195 kts 345°
2026-05-05 11:08 33.44262 -7.61176 5637 ft 197 kts 344°
2026-05-05 11:08 33.45618 -7.61469 6410 ft 199 kts 348°
2026-05-05 11:08 33.46977 -7.61764 7148 ft 199 kts 347°
2026-05-05 11:09 33.48348 -7.62034 7848 ft 201 kts 343°
2026-05-05 11:09 33.49742 -7.62306 8534 ft 203 kts 345°
2026-05-05 11:09 33.51117 -7.62605 9293 ft 199 kts 348°
2026-05-05 11:09 33.52461 -7.62892 10083 ft 194 kts 346°
2026-05-05 11:10 33.53791 -7.63131 10705 ft 196 kts 348°
2026-05-05 11:10 33.55203 -7.63064 11060 ft 209 kts 16°
2026-05-05 11:10 33.56335 -7.61918 11253 ft 227 kts 63°
2026-05-05 11:10 33.56614 -7.60020 11435 ft 242 kts 96°
2026-05-05 11:11 33.56430 -7.57940 11599 ft 261 kts 99°
2026-05-05 11:11 33.56193 -7.55694 11753 ft 282 kts 98°
2026-05-05 11:11 33.55983 -7.53289 12173 ft 296 kts 95°
2026-05-05 11:11 33.55976 -7.50809 12884 ft 300 kts 85°
2026-05-05 11:12 33.56340 -7.48336 13615 ft 304 kts 75°
2026-05-05 11:12 33.57068 -7.45938 14261 ft 308 kts 64°
2026-05-05 11:12 33.58005 -7.43614 14893 ft 312 kts 66°
2026-05-05 11:12 33.58886 -7.41155 15182 ft 330 kts 62°
2026-05-05 11:13 33.60324 -7.38998 15605 ft 335 kts 32°
2026-05-05 11:13 33.62433 -7.37978 16321 ft 324 kts
2026-05-05 11:13 33.64631 -7.38150 17105 ft 314 kts 344°
2026-05-05 11:13 33.66793 -7.38635 17747 ft 319 kts 345°
2026-05-05 11:14 33.69034 -7.38931 18302 ft 330 kts 353°
2026-05-05 11:14 33.71349 -7.38883 18914 ft 334 kts 358°
2026-05-05 11:14 33.73677 -7.38631 19520 ft 338 kts
2026-05-05 11:14 33.76020 -7.38272 20051 ft 343 kts
2026-05-05 11:15 33.78399 -7.37853 20581 ft 348 kts
2026-05-05 11:15 33.80804 -7.37403 21162 ft 350 kts
2026-05-05 11:15 33.83219 -7.36939 21731 ft 353 kts
2026-05-05 11:15 33.85657 -7.36468 22265 ft 357 kts
2026-05-05 11:16 33.88119 -7.35991 22791 ft 361 kts
2026-05-05 11:16 33.90611 -7.35509 23339 ft 364 kts
2026-05-05 11:16 33.93116 -7.35024 23836 ft 367 kts
2026-05-05 11:16 33.95648 -7.34535 24295 ft 369 kts
2026-05-05 11:17 33.98165 -7.34047 24773 ft 371 kts
2026-05-05 11:17 34.00715 -7.33554 25245 ft 372 kts
2026-05-05 11:17 34.03284 -7.33056 25684 ft 375 kts
2026-05-05 11:17 34.05867 -7.32556 26124 ft 377 kts
2026-05-05 11:18 34.08468 -7.32052 26572 ft 379 kts
2026-05-05 11:18 34.11079 -7.31532 27022 ft 382 kts
2026-05-05 11:18 34.13558 -7.30261 27194 ft 401 kts 36°
2026-05-05 11:18 34.15544 -7.27900 27836 ft 397 kts 45°
2026-05-05 11:19 34.17505 -7.25574 28284 ft 397 kts 32°
2026-05-05 11:19 34.19996 -7.24192 28429 ft 394 kts
2026-05-05 11:19 34.22657 -7.23521 29060 ft 388 kts
2026-05-05 11:19 34.25300 -7.22765 29411 ft 395 kts 13°
2026-05-05 11:20 34.27909 -7.21576 29624 ft 405 kts 21°
2026-05-05 11:20 34.30454 -7.20091 30030 ft 407 kts 24°
2026-05-05 11:20 34.32961 -7.18495 30440 ft 408 kts 25°
2026-05-05 11:20 34.35471 -7.16870 30735 ft 411 kts 24°
2026-05-05 11:21 34.38007 -7.15245 30971 ft 414 kts 24°
2026-05-05 11:21 34.40569 -7.13628 31254 ft 417 kts 24°
2026-05-05 11:21 34.43147 -7.12019 31576 ft 418 kts 23°
2026-05-05 11:21 34.45737 -7.10412 31884 ft 419 kts 23°
2026-05-05 11:22 34.48341 -7.08801 32156 ft 421 kts 23°
2026-05-05 11:22 34.50962 -7.07178 32405 ft 424 kts 23°
2026-05-05 11:22 34.53593 -7.05547 32675 ft 426 kts 23°
2026-05-05 11:22 34.56234 -7.03907 32968 ft 427 kts 23°
2026-05-05 11:23 34.58886 -7.02258 33241 ft 429 kts 23°
2026-05-05 11:23 34.61546 -7.00607 33490 ft 431 kts 22°
2026-05-05 11:23 34.64229 -6.98959 33740 ft 432 kts 22°
2026-05-05 11:23 34.66920 -6.97315 33994 ft 434 kts 22°
2026-05-05 11:24 34.69622 -6.95666 34222 ft 435 kts 22°
2026-05-05 11:24 34.72335 -6.94008 34424 ft 437 kts 22°
2026-05-05 11:24 34.75057 -6.92342 34603 ft 439 kts 22°
2026-05-05 11:24 34.77796 -6.90662 34779 ft 442 kts 22°
2026-05-05 11:25 34.80543 -6.88976 34974 ft 443 kts 22°
2026-05-05 11:25 34.83264 -6.87302 35162 ft 445 kts 22°
2026-05-05 11:25 34.86028 -6.85601 35349 ft 446 kts 22°
2026-05-05 11:25 34.88803 -6.83891 35511 ft 448 kts 22°
2026-05-05 11:26 34.91593 -6.82172 35689 ft 450 kts 22°
2026-05-05 11:26 34.94391 -6.80445 35858 ft 451 kts 22°
2026-05-05 11:26 34.97200 -6.78711 36023 ft 453 kts 22°
2026-05-05 11:26 35.00008 -6.76976 36181 ft 455 kts 22°
2026-05-05 11:27 35.02843 -6.75223 36340 ft 456 kts 22°
2026-05-05 11:27 35.05680 -6.73467 36504 ft 458 kts 22°
2026-05-05 11:27 35.08527 -6.71704 36667 ft 459 kts 22°
2026-05-05 11:27 35.11376 -6.69938 36817 ft 460 kts 22°
2026-05-05 11:28 35.14241 -6.68161 36961 ft 462 kts 22°
2026-05-05 11:28 35.17108 -6.66381 37095 ft 464 kts 22°
2026-05-05 11:28 35.19990 -6.64591 37247 ft 465 kts 22°
2026-05-05 11:28 35.22875 -6.62797 37398 ft 466 kts 22°
2026-05-05 11:29 35.25763 -6.60999 37568 ft 466 kts 22°
2026-05-05 11:29 35.28655 -6.59197 37735 ft 467 kts 22°
2026-05-05 11:29 35.31555 -6.57390 37854 ft 468 kts 22°
2026-05-05 11:30 35.37367 -6.53762 38075 ft 469 kts 22°
2026-05-05 11:30 35.43225 -6.50102 38071 ft 475 kts 22°
2026-05-05 11:31 35.49133 -6.46336 38057 ft 482 kts 23°
2026-05-05 11:31 35.55065 -6.42434 38066 ft 486 kts 23°
2026-05-05 11:32 35.61031 -6.38508 38080 ft 488 kts 23°
2026-05-05 11:32 35.67034 -6.34574 38079 ft 489 kts 23°
2026-05-05 11:33 35.73032 -6.30638 38052 ft 487 kts 23°
2026-05-05 11:33 35.78949 -6.26753 38070 ft 479 kts 23°
2026-05-05 11:34 35.84827 -6.22905 38054 ft 477 kts 22°
2026-05-05 11:34 35.90665 -6.19157 38073 ft 476 kts 22°
2026-05-05 11:35 35.96534 -6.15383 38072 ft 476 kts 22°
2026-05-05 11:35 36.02402 -6.11582 38069 ft 477 kts 22°
2026-05-05 11:36 36.08286 -6.07762 38086 ft 478 kts 22°
2026-05-05 11:36 36.14182 -6.03931 38071 ft 480 kts 22°
2026-05-05 11:37 36.20104 -6.00077 38075 ft 482 kts 22°
2026-05-05 11:37 36.25817 -5.95639 37949 ft 496 kts 42°
2026-05-05 11:37 36.28007 -5.92327 38078 ft 497 kts 52°
2026-05-05 11:38 36.29985 -5.88821 38164 ft 496 kts 51°
2026-05-05 11:38 36.32273 -5.85635 37991 ft 493 kts 36°
2026-05-05 11:38 36.34952 -5.83062 38185 ft 486 kts 31°
2026-05-05 11:38 36.37702 -5.80570 38026 ft 491 kts 33°
2026-05-05 11:39 36.40328 -5.77861 38075 ft 493 kts 39°
2026-05-05 11:39 36.45082 -5.71662 38097 ft 496 kts 45°
2026-05-05 11:40 36.49728 -5.65290 38072 ft 497 kts 44°
2026-05-05 11:40 36.54514 -5.59062 38031 ft 498 kts 42°
2026-05-05 11:41 36.59367 -5.52936 38030 ft 497 kts 41°
2026-05-05 11:41 36.64227 -5.46815 38007 ft 498 kts 42°
2026-05-05 11:42 36.69074 -5.40671 37995 ft 499 kts 42°
2026-05-05 11:42 36.73890 -5.34539 38049 ft 498 kts 42°
2026-05-05 11:43 36.78739 -5.28352 38062 ft 498 kts 42°
2026-05-05 11:43 36.83584 -5.22160 38034 ft 499 kts 42°
2026-05-05 11:44 36.88428 -5.15958 37991 ft 499 kts 42°
2026-05-05 11:44 36.93268 -5.09748 37984 ft 500 kts 42°
2026-05-05 11:45 36.98112 -5.03521 38045 ft 499 kts 42°
2026-05-05 11:45 37.02961 -4.97296 38035 ft 498 kts 40°
2026-05-05 11:46 37.08295 -4.91876 37910 ft 487 kts 19°
2026-05-05 11:46 37.11416 -4.90444 38108 ft 471 kts
2026-05-05 11:46 37.14574 -4.89357 38078 ft 473 kts
2026-05-05 11:47 37.20884 -4.86577 38042 ft 488 kts 17°
2026-05-05 11:47 37.27088 -4.82997 38040 ft 492 kts 19°
2026-05-05 11:48 37.36503 -4.77783 38031 ft 493 kts 16°
2026-05-05 11:48 37.42839 -4.74469 38040 ft 493 kts 16°
2026-05-05 11:49 37.49185 -4.71159 38002 ft 493 kts 16°
2026-05-05 11:49 37.55508 -4.67836 37970 ft 492 kts 16°
2026-05-05 11:50 37.61805 -4.64510 38001 ft 490 kts 16°
2026-05-05 11:50 37.68078 -4.61193 38045 ft 487 kts 16°
2026-05-05 11:51 37.74329 -4.57884 38052 ft 485 kts 16°
2026-05-05 11:51 37.80561 -4.54577 38022 ft 485 kts 17°
2026-05-05 11:52 37.85350 -4.50738 37892 ft 505 kts 44°
2026-05-05 11:52 37.87931 -4.45854 37997 ft 508 kts 63°
2026-05-05 11:52 37.88906 -4.43093 38037 ft 508 kts 67°
2026-05-05 11:53 37.91368 -4.34697 37975 ft 510 kts 69°
2026-05-05 11:53 37.94345 -4.24975 37966 ft 510 kts 64°
2026-05-05 11:54 37.96787 -4.18125 38021 ft 509 kts 64°
2026-05-05 11:54 37.99660 -4.09958 38011 ft 510 kts 65°
2026-05-05 11:55 38.02442 -4.01654 37960 ft 513 kts 66°
2026-05-05 11:55 38.05186 -3.93306 37968 ft 514 kts 66°
2026-05-05 11:56 38.07939 -3.84932 38003 ft 514 kts 66°
2026-05-05 11:56 38.10701 -3.76537 38008 ft 515 kts 66°
2026-05-05 11:57 38.13457 -3.68139 37996 ft 516 kts 66°
2026-05-05 11:57 38.16093 -3.59659 37963 ft 517 kts 71°
2026-05-05 11:58 38.18011 -3.50862 37990 ft 516 kts 79°
2026-05-05 11:58 38.19173 -3.41875 38025 ft 515 kts 83°
2026-05-05 11:59 38.20305 -3.32886 38002 ft 515 kts 80°
2026-05-05 11:59 38.21696 -3.23951 37983 ft 515 kts 78°
2026-05-05 12:00 38.23200 -3.15056 37999 ft 514 kts 78°
2026-05-05 12:00 38.24697 -3.06159 37989 ft 514 kts 79°
2026-05-05 12:01 38.26160 -2.97266 38001 ft 513 kts 79°
2026-05-05 12:01 38.26885 -2.92816 37864 ft 516 kts 79°
2026-05-05 12:01 38.27613 -2.88327 37479 ft 520 kts 79°
2026-05-05 12:02 38.28342 -2.83826 37229 ft 517 kts 79°
2026-05-05 12:02 38.29063 -2.79367 36948 ft 512 kts 79°
2026-05-05 12:02 38.29781 -2.74919 36258 ft 514 kts 79°
2026-05-05 12:02 38.30500 -2.70468 35777 ft 511 kts 79°
2026-05-05 12:03 38.31213 -2.66037 35114 ft 513 kts 79°
2026-05-05 12:03 38.31931 -2.61555 34404 ft 517 kts 79°
2026-05-05 12:03 38.32642 -2.57104 34063 ft 511 kts 80°
2026-05-05 12:03 38.33355 -2.52629 33101 ft 519 kts 80°
2026-05-05 12:04 38.34067 -2.48156 32691 ft 513 kts 80°
2026-05-05 12:04 38.34779 -2.43669 31830 ft 518 kts 80°
2026-05-05 12:04 38.35534 -2.39234 31528 ft 510 kts 77°
2026-05-05 12:04 38.36505 -2.34924 30897 ft 512 kts 69°
2026-05-05 12:05 38.38131 -2.30890 30424 ft 503 kts 50°
2026-05-05 12:05 38.40467 -2.27644 30048 ft 491 kts 39°
2026-05-05 12:05 38.42925 -2.24642 29414 ft 491 kts 41°
2026-05-05 12:05 38.45154 -2.21346 29029 ft 489 kts 50°
2026-05-05 12:06 38.47126 -2.17825 28497 ft 487 kts 53°
2026-05-05 12:06 38.49025 -2.14333 28026 ft 483 kts 51°
2026-05-05 12:06 38.51016 -2.10897 27528 ft 479 kts 49°
2026-05-05 12:06 38.53058 -2.07555 27068 ft 475 kts 48°
2026-05-05 12:07 38.55109 -2.04269 26601 ft 472 kts 48°
2026-05-05 12:07 38.57177 -2.00963 26135 ft 469 kts 48°
2026-05-05 12:07 38.59198 -1.97711 25667 ft 466 kts 48°
2026-05-05 12:07 38.61168 -1.94512 25226 ft 463 kts 49°
2026-05-05 12:08 38.63148 -1.91277 24768 ft 460 kts 49°
2026-05-05 12:08 38.65110 -1.88059 24303 ft 458 kts 49°
2026-05-05 12:08 38.67069 -1.84841 23836 ft 456 kts 49°
2026-05-05 12:08 38.69013 -1.81647 23331 ft 454 kts 49°
2026-05-05 12:09 38.70950 -1.78465 22809 ft 452 kts 49°
2026-05-05 12:09 38.72871 -1.75306 22346 ft 448 kts 49°
2026-05-05 12:09 38.74773 -1.72174 21857 ft 445 kts 49°
2026-05-05 12:09 38.76663 -1.69056 21398 ft 441 kts 49°
2026-05-05 12:10 38.78538 -1.65960 20954 ft 438 kts 49°
2026-05-05 12:10 38.80395 -1.62892 20507 ft 434 kts 49°
2026-05-05 12:10 38.82238 -1.59842 20073 ft 431 kts 50°
2026-05-05 12:10 38.84067 -1.56814 19642 ft 428 kts 50°
2026-05-05 12:11 38.85883 -1.53806 19210 ft 425 kts 50°
2026-05-05 12:11 38.87686 -1.50815 18679 ft 425 kts 50°
2026-05-05 12:11 38.89505 -1.47797 18085 ft 427 kts 50°
2026-05-05 12:11 38.91309 -1.44798 17624 ft 423 kts 50°
2026-05-05 12:12 38.93101 -1.41816 17135 ft 420 kts 50°
2026-05-05 12:12 38.94873 -1.38865 16705 ft 415 kts 50°
2026-05-05 12:12 38.96624 -1.35946 16277 ft 411 kts 50°
2026-05-05 12:12 38.98260 -1.32951 15835 ft 409 kts 59°
2026-05-05 12:13 38.99175 -1.29524 15372 ft 405 kts 87°
2026-05-05 12:13 38.98919 -1.26022 15082 ft 389 kts 112°
2026-05-05 12:13 38.97700 -1.22997 14691 ft 375 kts 131°
2026-05-05 12:13 38.96072 -1.20434 14185 ft 369 kts 140°
2026-05-05 12:14 38.94136 -1.18365 13803 ft 357 kts 153°
2026-05-05 12:14 38.92037 -1.16708 13359 ft 352 kts 156°
2026-05-05 12:14 38.89937 -1.15093 12899 ft 351 kts 153°
2026-05-05 12:14 38.87931 -1.13312 12489 ft 350 kts 148°
2026-05-05 12:15 38.86040 -1.11430 12083 ft 347 kts 147°
2026-05-05 12:15 38.84121 -1.09509 11683 ft 344 kts 147°
2026-05-05 12:15 38.82249 -1.07687 11296 ft 341 kts 147°
2026-05-05 12:15 38.80347 -1.05887 10880 ft 339 kts 147°
2026-05-05 12:16 38.78442 -1.04120 10536 ft 335 kts 147°
2026-05-05 12:16 38.76590 -1.02409 10448 ft 323 kts 147°
2026-05-05 12:16 38.74790 -1.00747 10260 ft 315 kts 147°
2026-05-05 12:16 38.73040 -0.99136 10146 ft 304 kts 147°
2026-05-05 12:17 38.71350 -0.97582 9996 ft 295 kts 147°
2026-05-05 12:17 38.69706 -0.96075 9820 ft 286 kts 147°
2026-05-05 12:17 38.68102 -0.94605 9454 ft 284 kts 147°
2026-05-05 12:17 38.66498 -0.93138 9145 ft 280 kts 147°
2026-05-05 12:18 38.64934 -0.91704 8841 ft 274 kts 147°
2026-05-05 12:18 38.63390 -0.90288 8570 ft 272 kts 147°
2026-05-05 12:18 38.61861 -0.88887 8293 ft 269 kts 147°
2026-05-05 12:18 38.60353 -0.87509 8017 ft 264 kts 148°
2026-05-05 12:19 38.58877 -0.86156 7849 ft 257 kts 148°
2026-05-05 12:19 38.57454 -0.84856 7737 ft 247 kts 147°
2026-05-05 12:19 38.56080 -0.83596 7613 ft 239 kts 148°
2026-05-05 12:19 38.54738 -0.82395 7518 ft 235 kts 152°
2026-05-05 12:20 38.53200 -0.81666 7282 ft 241 kts 183°
2026-05-05 12:20 38.51602 -0.82101 7194 ft 232 kts 201°
2026-05-05 12:20 38.50887 -0.82413 7030 ft 234 kts 201°
2026-05-05 12:20 38.49335 -0.83044 6775 ft 234 kts 198°
2026-05-05 12:21 38.47753 -0.83539 6531 ft 234 kts 195°
2026-05-05 12:21 38.46168 -0.83995 6291 ft 233 kts 195°
2026-05-05 12:21 38.44586 -0.84450 6029 ft 232 kts 195°
2026-05-05 12:21 38.43012 -0.84907 5765 ft 232 kts 195°
2026-05-05 12:22 38.41437 -0.85366 5540 ft 232 kts 195°
2026-05-05 12:22 38.39851 -0.85831 5264 ft 236 kts 196°
2026-05-05 12:22 38.38265 -0.86297 5128 ft 231 kts 195°
2026-05-05 12:22 38.36704 -0.86751 4963 ft 230 kts 195°
2026-05-05 12:23 38.35140 -0.87170 4709 ft 232 kts 187°
2026-05-05 12:23 38.33583 -0.86682 4478 ft 236 kts 146°
2026-05-05 12:23 38.32607 -0.85015 4255 ft 243 kts 108°
2026-05-05 12:23 38.32292 -0.82886 3980 ft 248 kts 101°
2026-05-05 12:24 38.31885 -0.80760 3692 ft 245 kts 109°
2026-05-05 12:24 38.31409 -0.78698 3436 ft 240 kts 107°
2026-05-05 12:24 38.31039 -0.76632 3124 ft 239 kts 102°
2026-05-05 12:24 38.30778 -0.74547 2819 ft 238 kts 99°
2026-05-05 12:25 38.30541 -0.72471 2495 ft 236 kts 101°
2026-05-05 12:25 38.30266 -0.70413 2167 ft 236 kts 102°
2026-05-05 12:25 38.29976 -0.68366 1892 ft 233 kts 102°
2026-05-05 12:25 38.29691 -0.66370 1574 ft 222 kts 102°
2026-05-05 12:26 38.29431 -0.64502 1277 ft 205 kts 102°
2026-05-05 12:26 38.29190 -0.62785 1025 ft 189 kts 101°
2026-05-05 12:26 38.28976 -0.61252 784 ft 167 kts 103°
2026-05-05 12:26 38.28785 -0.59893 589 ft 148 kts 103°
2026-05-05 12:27 38.28612 -0.58661 399 ft 137 kts 101°
2026-05-05 12:27 38.28441 -0.57436 235 ft 143 kts 101°
2026-05-05 12:27 38.28261 -0.56184 116 ft 142 kts 99°
2026-05-05 12:27 38.28090 -0.54977 75 ft 118 kts 100°
2026-05-05 12:28 38.28034 -0.54560 64 ft 12 kts 95°
2026-05-05 12:28 38.28071 -0.54467 64 ft 13 kts 18°
2026-05-05 12:28 38.28133 -0.54453 63 ft 4 kts
2026-05-05 12:29 38.28139 -0.54452 63 ft 2 kts
2026-05-05 12:29 38.28163 -0.54447 62 ft 5 kts
2026-05-05 12:30 38.28202 -0.54459 61 ft 7 kts 305°
2026-05-05 12:30 38.28213 -0.54517 60 ft 7 kts 280°
2026-05-05 12:30 38.28221 -0.54575 63 ft 7 kts 280°
2026-05-05 12:30 38.28228 -0.54631 61 ft 6 kts 280°
2026-05-05 12:31 38.28236 -0.54686 67 ft 6 kts 279°
2026-05-05 12:31 38.28244 -0.54740 64 ft 6 kts 281°
2026-05-05 12:31 38.28252 -0.54792 70 ft 6 kts 280°
2026-05-05 12:31 38.28259 -0.54846 70 ft 6 kts 278°
2026-05-05 12:32 38.28266 -0.54900 74 ft 7 kts 279°
2026-05-05 12:32 38.28277 -0.54983 74 ft 12 kts 280°
2026-05-05 12:32 38.28294 -0.55103 81 ft 13 kts 281°
2026-05-05 12:32 38.28330 -0.55204 87 ft 13 kts 331°
2026-05-05 12:33 38.28375 -0.55181 87 ft 10 kts 49°
2026-05-05 12:33 38.28430 -0.55172 90 ft 8 kts 307°
2026-05-05 12:33 38.28450 -0.55272 88 ft 14 kts 279°
2026-05-05 12:33 38.28462 -0.55361 92 ft 9 kts 280°
2026-05-05 12:34 38.28470 -0.55413 91 ft 1 kts 290°
2026-05-05 12:34 38.28489 -0.55419 92 ft 5 kts
2026-05-05 12:34 38.28533 -0.55407 89 ft 4 kts 10°
2026-05-05 12:34 38.28550 -0.55403 90 ft 0 kts 10°